STARLINK-2417 (48096 NORAD) Tracking and Keplerian Element Data

This shows tracking and keplerian element data for the satellite.

Feedback or suggestion? Click here.




ElementValue
Catalog48096
NameSTARLINK-2417
Epoch Orbit194
Epoch Day170.58334491
Epoch Year2021
RAAN351.4187
Inclination53.0529
Eccentricity0.0001411
Argument of Perigee93.8715
Mean Anonmoly221.239
Mean Motion15.06305845
Decay Rate0.00140463
L11 48096U 21027E 21170.58334491 .00140463 00000-0 92863-2 0 9995
L22 48096 53.0529 351.4187 0001411 93.8715 221.2390 15.06305845 1942

Live tracking and technical data element details for STARLINK-2417 (NORAD 48096). STARLINK-2417 can be tracked NOW for your location showing map with azimuth and elevation plus other details from your city location.

Track the satellite on the map from your city or location and see movement details for azimuth, elevation, latitude, longitude, range, height, and movement on the map or in text.







IsCatalogInMostPopularTable: catalog: 48096, numindb: 34
Update: records affected: 1



GetName: 48096 STARLINK-2417

Hit Count: updated at: Mon, 21 Jun 2021 04:10:02 GMT